Location: Montamat
(43.4852°N, 0.8444°E)
Time: 10:12:09
(UTC+00:00)

Cosmos 1763 Rocket - Pass Details

Date: 14 May 2026
Orbit: 728 x 773 km, 74.0° (Epoch: 5 June)

Event Time Altitude Azimuth Distance (km) Brightness Sun altitude
Exits shadow 21:53:12 49° 172° (S) 990 3.6 -21.9°
Maximum altitude 21:54:32 71° 107° (ESE) 821 3.4 -22.0°
Drops below altitude 10° 21:59:47 10° 25° (NNE) 2,321 6.4 -22.5°
Sets 22:02:10 0° 23° (NNE) 3,248 7.3 -22.7°
